[[{"header":{"parameterUnit":"m.s-1","parameterCategory":1,"la1":30.2991,"la2":30.254,"lo1":-89.0895,"lo2":-89.0444,"dy":0.0017,"dx":0.0017,"nx":28,"ny":28,"refTime":"2023-04-03T21:00:00:Z","depth":0,"parameterNumber":2,"parameterNumberName":"U-component_of_WINDS"},"data":[0,0,0,0,0,0,0,0,0,0,0,0,0,0,0,0,0,0,0,0,0,0,0,0,0,0,0,0,0,0,0,0,0,0,0,0,0,0,0,0,0,0,0,0,0,0,0,0,0,0,0,0,0,0,0,0,0,0,-2.5711,-2.5713,0,-2.588,-2.5881,-2.5883,-2.5941,-2.594,-2.5939,-2.5939,-2.6114,-2.6119,-2.6124,0,0,0,0,0,0,0,0,0,0,0,0,0,-2.5441,-2.5445,-2.5711,-2.5713,-2.5715,-2.5879,-2.5882,-2.5884,-2.5941,-2.594,-2.5939,-2.5939,-2.6112,-2.6118,-2.6125,0,0,0,0,0,0,0,0,0,0,0,0,0,-2.5579,-2.5447,-2.571,-2.5763,-2.577,-2.5879,-2.5882,-2.5885,-2.5941,-2.594,-2.5939,-2.5938,-2.611,-2.6118,-2.6126,-2.6195,0,0,-2.615,-2.6153,0,0,0,0,0,0,0,0,-2.5571,-2.5588,-2.5753,-2.576,-2.5767,-2.5888,-2.5851,-2.5989,-2.5941,-2.5876,-2.5939,-2.5938,-2.604,-2.6053,-2.6087,-2.6204,-2.6211,-2.6151,-2.6155,-2.6159,-2.6161,0,0,0,0,0,0,0,-2.5561,-2.5582,-2.5778,-2.5756,-2.5764,-2.5779,-2.5798,-2.5877,-2.5962,-2.5882,-2.5886,-2.5905,-2.6043,-2.608,-2.6092,-2.6214,-2.615,-2.6158,-2.6162,-2.6166,-2.6396,-2.6398,0,0,0,0,0,0,-2.5542,-2.5573,-2.5772,-2.5783,-2.5664,-2.5785,-2.5806,-2.585,-2.5961,-2.5977,-2.5906,-2.5907,-2.6067,-2.6083,-2.6098,-2.6187,-2.6159,-2.6166,-2.6171,-2.6395,-2.6397,-2.6398,0,0,0,0,0,0,-2.5536,-2.5559,-2.5765,-2.5679,-2.5707,-2.5791,-2.584,-2.5854,-2.589,-2.5979,-2.5995,-2.5927,-2.6066,-2.6087,-2.6171,-2.6194,-2.617,-2.6177,-2.6393,-2.6395,-2.6397,-2.6365,0,0,0,0,0,0,-2.5528,-2.5557,-2.5583,-2.5679,-2.5711,-2.5834,-2.5842,-2.5858,-2.5904,-2.5907,-2.6003,-2.6018,-2.6067,-2.6159,-2.6179,-2.6205,-2.6183,-2.6392,-2.6394,-2.6397,-2.6365,-2.6366,-2.6367,0,0,0,0,0,-2.5518,-2.5568,-2.5584,-2.5608,-2.5746,-2.5835,-2.5853,-2.5908,-2.5905,-2.5933,-2.5991,-2.6015,-2.6188,-2.6167,-2.619,-2.6218,-2.639,-2.6394,-2.6397,-2.6364,-2.6366,-2.6367,0,0,0,0,0,0,-2.5473,-2.5582,-2.5601,-2.5683,-2.5749,-2.5845,-2.5881,-2.5908,-2.5977,-2.5977,-2.6042,-2.6064,-2.6142,-2.6189,-2.6163,-2.6292,-2.6291,-2.6299,-2.6258,-2.6261,-2.6262,-2.6248,-2.619,0,0,0,0,0,-2.5473,-2.5536,-2.5627,-2.5691,-2.5723,-2.5796,-2.5837,-2.5874,-2.5945,-2.5974,-2.6037,-2.6107,-2.6177,-2.6222,-2.6291,-2.6372,-2.6394,-2.6403,-2.6405,-2.6405,-2.6411,-2.6458,-2.6463,-2.6408,-2.6408,-2.6408,0,0,-2.5473,-2.554,-2.5575,-2.5684,-2.5739,-2.5803,-2.582,-2.5887,-2.5935,-2.5984,-2.6067,-2.6116,-2.6198,-2.628,-2.632,-2.6322,-2.6431,-2.6409,-2.6409,-2.6414,-2.6461,-2.6466,-2.6471,-2.641,-2.641,-2.641,0,0,-2.5505,-2.5562,-2.5621,-2.5676,-2.576,-2.5809,-2.5823,-2.5915,-2.5949,-2.6033,-2.6071,-2.613,-2.625,-2.6306,-2.6351,-2.6406,-2.6431,-2.6427,-2.6433,-2.6478,-2.6482,-2.6486,-2.6505,-2.6511,-2.6432,-2.6432,-2.6432,0,-2.5494,-2.5591,-2.5648,-2.5713,-2.576,-2.5807,-2.5868,-2.592,-2.6022,-2.6054,-2.6054,-2.6205,-2.6264,-2.636,-2.6374,-2.6408,-2.6427,-2.6415,-2.6477,-2.6481,-2.6486,-2.6505,-2.6512,-2.6431,-2.6431,-2.6431,-2.6432,0,-2.5574,-2.5641,-2.5679,-2.5776,-2.5827,-2.589,-2.5957,-2.6002,-2.6035,-2.6083,-2.6169,-2.6241,-2.6325,-2.6351,-2.6384,-2.6453,-2.6452,-2.6464,-2.6463,-2.6489,-2.6508,-2.6516,-2.6429,-2.643,-2.643,-2.6431,0,0,-2.5581,-2.5709,-2.5722,-2.5767,-2.5863,-2.5917,-2.5982,-2.6065,-2.6102,-2.6172,-2.6229,-2.6329,-2.6341,-2.6391,-2.6431,-2.647,-2.6509,-2.6478,-2.6481,-2.648,-2.659,-2.6579,-2.6587,-2.6527,-2.6529,-2.653,-2.6583,0,-2.5626,-2.5743,-2.5797,-2.5891,-2.5953,-2.6,-2.6057,-2.6123,-2.617,-2.6232,-2.6285,-2.6355,-2.6365,-2.6396,-2.6437,-2.6495,-2.6531,-2.6492,-2.6581,-2.6583,-2.6557,-2.6597,-2.6586,-2.6632,-2.6591,-2.6592,-2.6593,0,-2.5693,-2.5761,-2.5861,-2.595,-2.5979,-2.6029,-2.6109,-2.6167,-2.6243,-2.6275,-2.6331,-2.6369,-2.6441,-2.6437,-2.6537,-2.6509,-2.6549,-2.6583,-2.6586,-2.6595,-2.6588,-2.6607,-2.6648,-2.6655,-2.6605,-2.6604,-2.6603,0,-2.5687,-2.5805,-2.588,-2.5917,-2.6023,-2.6057,-2.6103,-2.6178,-2.6225,-2.6295,-2.6326,-2.6404,-2.6447,-2.6507,-2.6566,-2.6557,-2.666,-2.6661,-2.6689,-2.6687,-2.6708,-2.6705,-2.6755,-2.6734,-2.6734,-2.6734,-2.6734,0,-2.573,-2.579,-2.5879,-2.5925,-2.5993,-2.6055,-2.6121,-2.617,-2.6237,-2.6294,-2.634,-2.6393,-2.6467,-2.653,-2.6576,-2.6652,-2.6671,-2.6699,-2.6711,-2.6695,-2.6691,-2.6721,-2.6719,-2.6736,-2.6736,-2.6735,-2.6735,0,-2.5735,-2.5798,-2.5882,-2.5976,-2.6001,-2.6047,-2.6127,-2.6174,-2.6225,-2.6296,-2.6317,-2.6396,-2.6472,-2.6537,-2.6638,-2.6669,-2.6747,-2.6761,-2.6721,-2.6727,-2.6751,-2.6748,-2.6821,-2.6834,-2.6805,-2.6805,-2.6805,0,-2.5758,-2.5805,-2.5903,-2.5944,-2.5989,-2.6055,-2.6102,-2.6166,-2.6213,-2.6304,-2.634,-2.6419,-2.6486,-2.6606,-2.6673,-2.6751,-2.6767,-2.6787,-2.6778,-2.6761,-2.6766,-2.6762,-2.6767,-2.6787,-2.6787,-2.6787,-2.6787,0,-2.5793,-2.5821,-2.5887,-2.5964,-2.6019,-2.6082,-2.6148,-2.6179,-2.6254,-2.6306,-2.6384,-2.6435,-2.6538,-2.6616,-2.6701,-2.675,-2.6781,-2.6789,-2.68,-2.6784,-2.6758,-2.6772,-2.6721,-2.6787,-2.6787,-2.6787,-2.6787,-2.6787,-2.5808,-2.5851,-2.5927,-2.5999,-2.6054,-2.6114,-2.6163,-2.6219,-2.6284,-2.6372,-2.6406,-2.6486,-2.6562,-2.6679,-2.6728,-2.6792,-2.6796,-2.6812,-2.6816,-2.6818,-2.6815,-2.6748,-2.6808,-2.6808,-2.6808,-2.6808,-2.6808,0,-2.5844,-2.5895,-2.596,-2.6049,-2.6106,-2.613,-2.6204,-2.625,-2.6319,-2.6387,-2.6452,-2.6542,-2.6618,-2.6691,-2.6772,-2.6809,-2.6826,-2.6828,-2.6826,-2.6836,-2.6807,-2.679,-2.6813,-2.6813,-2.6813,-2.6813,-2.6813,-2.6813,-2.5869,-2.5943,-2.5981,-2.6084,-2.6136,-2.6213,-2.6253,-2.6309,-2.6363,-2.6461,-2.6524,-2.6571,-2.6642,-2.6728,-2.68,-2.682,-2.6847,-2.6845,-2.6869,-2.684,-2.6838,-2.6837,-2.6821,-2.6851,-2.6851,-2.6893,-2.6893,-2.6893]},{"header":{"parameterUnit":"m.s-1","parameterCategory":1,"la1":30.2991,"la2":30.254,"lo1":-89.0895,"lo2":-89.0444,"dy":0.0017,"dx":0.0017,"nx":28,"ny":28,"refTime":"2023-04-03T21:00:00:Z","depth":0,"parameterNumber":3,"parameterNumberName":"V-component_of_WINDS"},"data":[0,0,0,0,0,0,0,0,0,0,0,0,0,0,0,0,0,0,0,0,0,0,0,0,0,0,0,0,0,0,0,0,0,0,0,0,0,0,0,0,0,0,0,0,0,0,0,0,0,0,0,0,0,0,0,0,0,0,4.7933,4.7934,0,4.8036,4.8037,4.8038,4.8043,4.8042,4.8041,4.804,4.8142,4.8146,4.815,0,0,0,0,0,0,0,0,0,0,0,0,0,4.7741,4.7745,4.7933,4.7934,4.7936,4.8035,4.8037,4.8038,4.8043,4.8042,4.804,4.8039,4.8141,4.8145,4.815,0,0,0,0,0,0,0,0,0,0,0,0,0,4.7832,4.7746,4.7933,4.795,4.7953,4.8035,4.8037,4.8039,4.8044,4.8042,4.804,4.8038,4.8139,4.8145,4.8151,4.8222,0,0,4.8168,4.8171,0,0,0,0,0,0,0,0,4.7827,4.7839,4.7946,4.7949,4.7952,4.8025,4.8007,4.81,4.8044,4.8009,4.804,4.8037,4.8104,4.8113,4.8136,4.8227,4.8231,4.8169,4.8172,4.8175,4.8176,0,0,0,0,0,0,0,4.7821,4.7835,4.7974,4.7948,4.7952,4.7953,4.7964,4.8025,4.8065,4.8012,4.8013,4.8025,4.8106,4.813,4.8138,4.8233,4.8169,4.8174,4.8177,4.818,4.839,4.8392,0,0,0,0,0,0,4.7811,4.7829,4.797,4.7977,4.7884,4.7958,4.797,4.8003,4.8065,4.8072,4.8026,4.8025,4.8121,4.8132,4.8142,4.8232,4.8175,4.818,4.8183,4.8388,4.8391,4.8393,0,0,0,0,0,0,4.7807,4.7824,4.7966,4.7903,4.7922,4.7963,4.8,4.8006,4.8031,4.8076,4.8083,4.8044,4.812,4.8134,4.8203,4.8235,4.8183,4.8188,4.8385,4.8389,4.8392,4.841,0,0,0,0,0,0,4.7801,4.7822,4.785,4.7904,4.7925,4.8025,4.8002,4.8009,4.8041,4.804,4.8094,4.8101,4.812,4.8194,4.8209,4.8242,4.8192,4.8383,4.8387,4.8391,4.8407,4.8414,4.8419,0,0,0,0,0,4.7795,4.7849,4.7851,4.7868,4.796,4.8027,4.8039,4.806,4.8044,4.8072,4.8101,4.81,4.8229,4.8201,4.8217,4.8253,4.8381,4.8386,4.839,4.8404,4.8412,4.8419,0,0,0,0,0,0,4.7796,4.7857,4.7859,4.7933,4.7975,4.8028,4.8064,4.8068,4.8115,4.8112,4.8135,4.8147,4.8216,4.8241,4.8209,4.8327,4.8303,4.8311,4.8308,4.8316,4.8322,4.8315,4.8197,0,0,0,0,0,4.7805,4.7855,4.7905,4.7966,4.7987,4.8022,4.8052,4.8065,4.8109,4.8126,4.816,4.8203,4.8253,4.8286,4.8335,4.841,4.8423,4.8443,4.8449,4.8454,4.8461,4.8506,4.8516,4.8409,4.8409,4.8409,0,0,4.7824,4.7864,4.7893,4.7967,4.8001,4.8053,4.8037,4.8091,4.813,4.8134,4.8202,4.8229,4.8278,4.8351,4.8385,4.8375,4.8494,4.8461,4.8464,4.8469,4.8512,4.8522,4.8531,4.8412,4.8411,4.8411,0,0,4.7886,4.792,4.7976,4.8011,4.8063,4.8087,4.81,4.8153,4.8171,4.824,4.8246,4.8292,4.8378,4.8413,4.8442,4.8521,4.8522,4.8536,4.8568,4.8611,4.862,4.8628,4.8657,4.8667,4.8542,4.8542,4.8542,0,4.7903,4.7981,4.8003,4.8059,4.8092,4.81,4.8157,4.819,4.8255,4.8278,4.8265,4.8375,4.8409,4.8492,4.8511,4.8534,4.8551,4.853,4.8617,4.8625,4.8632,4.8661,4.8672,4.8544,4.8544,4.8544,4.8543,0,4.8,4.8054,4.8093,4.8158,4.8195,4.8251,4.8282,4.8317,4.8327,4.8352,4.8424,4.8464,4.8523,4.8543,4.8552,4.8628,4.8621,4.8612,4.8589,4.8644,4.8671,4.8682,4.8546,4.8545,4.8545,4.8545,0,0,4.8064,4.8143,4.8157,4.8188,4.8247,4.829,4.8346,4.8405,4.8436,4.8481,4.853,4.8604,4.8597,4.8631,4.8644,4.8682,4.8744,4.8669,4.8671,4.8683,4.8832,4.8839,4.8851,4.8745,4.8747,4.8749,4.8829,0,4.8134,4.8236,4.8259,4.8347,4.8399,4.8408,4.8458,4.85,4.8526,4.8573,4.86,4.8653,4.864,4.866,4.8698,4.8728,4.8774,4.8723,4.8792,4.8794,4.878,4.8865,4.8872,4.8946,4.8839,4.8841,4.8842,0,4.8228,4.8278,4.8371,4.8427,4.8449,4.8494,4.855,4.8595,4.8644,4.866,4.8699,4.8709,4.877,4.8743,4.8827,4.8792,4.8821,4.8841,4.8844,4.8852,4.8822,4.8877,4.8969,4.8981,4.8859,4.8858,4.8857,0,4.8268,4.8358,4.8426,4.8452,4.8518,4.8549,4.8578,4.8625,4.866,4.8709,4.8732,4.8787,4.8818,4.8861,4.8886,4.8864,4.8969,4.8944,4.8985,4.8984,4.9007,4.9005,4.9107,4.9024,4.9024,4.9023,4.9023,0,4.8343,4.8401,4.8445,4.8487,4.8553,4.8579,4.8642,4.8671,4.8713,4.8762,4.8773,4.8818,4.8848,4.8898,4.8918,4.8986,4.8999,4.9014,4.9019,4.9014,4.9013,4.9035,4.9031,4.9026,4.9026,4.9025,4.9025,0,4.8399,4.8431,4.8507,4.8564,4.8579,4.8625,4.8674,4.8716,4.8742,4.8803,4.8819,4.886,4.8919,4.8949,4.9022,4.9036,4.9113,4.9114,4.9097,4.9099,4.9139,4.9135,4.9259,4.9277,4.9181,4.9181,4.9182,0,4.8446,4.8491,4.8553,4.8587,4.8617,4.8671,4.8707,4.8735,4.8772,4.8832,4.8867,4.8927,4.8977,4.9071,4.9107,4.9164,4.9167,4.9207,4.9176,4.917,4.917,4.9168,4.9173,4.9212,4.9213,4.9214,4.9215,0,4.8526,4.854,4.8592,4.8651,4.8694,4.8741,4.8787,4.8814,4.8849,4.8891,4.8952,4.8991,4.9067,4.9127,4.9187,4.9216,4.9222,4.9224,4.9237,4.9233,4.9222,4.923,4.9114,4.9221,4.9221,4.922,4.922,4.9219,4.858,4.8621,4.8673,4.8731,4.8769,4.8813,4.8856,4.8888,4.894,4.9005,4.9018,4.9084,4.9133,4.9215,4.9246,4.9298,4.929,4.9308,4.9313,4.9317,4.932,4.9213,4.9309,4.9309,4.9309,4.9309,4.9309,0,4.8663,4.8697,4.875,4.8816,4.8862,4.8864,4.8916,4.8954,4.9012,4.9058,4.9108,4.918,4.9239,4.928,4.9341,4.9374,4.9379,4.9389,4.9388,4.9395,4.9323,4.9307,4.9385,4.9385,4.9385,4.9385,4.9385,4.9385,4.8711,4.8782,4.8803,4.8893,4.8927,4.8992,4.9022,4.9063,4.91,4.918,4.923,4.9257,4.9302,4.9366,4.942,4.9431,4.9453,4.9464,4.9475,4.9408,4.94,4.9392,4.9377,4.9469,4.9469,4.9543,4.9544,4.9545]}]]